This is the latest recevied weather packets stored in our database for station/object K1RFS. If no packets are shown the sender has not sent any weather packets the latest 10 day(s).
| Time | Temp. | Humidity | Pressure | Rain* | Wind** | Luminosity | Snow |
|---|---|---|---|---|---|---|---|
| 1788677829 | 23.33° C | 22% | 1002.2 hPa | 0 mm | - | 0 W/m² | - |
| 1788677525 | 22.78° C | 22% | 1002.1 hPa | 0 mm | - | 0 W/m² | - |
| 1788677221 | 22.78° C | 23% | 1002.1 hPa | 0 mm | - | 0 W/m² | - |
| 1788676921 | 22.78° C | 23% | 1002.1 hPa | 0 mm | - | 0 W/m² | - |
| 1788676616 | 22.78° C | 23% | 1002.2 hPa | 0 mm | - | 0 W/m² | - |
| 1788676312 | 22.78° C | 24% | 1002 hPa | 0 mm | - | 0 W/m² | - |
| 1788676008 | 22.78° C | 23% | 1002.1 hPa | 0 mm | - | 0 W/m² | - |
| 1788675706 | 22.78° C | 24% | 1002 hPa | 0 mm | - | 0 W/m² | - |
| 1788675403 | 23.33° C | 23% | 1002 hPa | 0 mm | - | 0 W/m² | - |
| 1788675103 | 23.33° C | 22% | 1001.8 hPa | 0 mm | - | 0 W/m² | - |
| 1788674799 | 23.33° C | 23% | 1002 hPa | 0 mm | - | 0 W/m² | - |
| 1788674496 | 23.33° C | 22% | 1002.2 hPa | 0 mm | - | 0 W/m² | - |
| 1788674192 | 23.33° C | 22% | 1002 hPa | 0 mm | - | 0 W/m² | - |
| 1788673887 | 23.89° C | 21% | 1002.1 hPa | 0 mm | - | 0 W/m² | - |
| 1788673582 | 23.89° C | 21% | 1001.7 hPa | 0 mm | - | 0 W/m² | - |
| 1788673277 | 23.89° C | 21% | 1001.8 hPa | 0 mm | - | 0 W/m² | - |
| 1788672973 | 24.44° C | 20% | 1001.8 hPa | 0 mm | - | 0 W/m² | - |
| 1788672669 | 24.44° C | 20% | 1001.7 hPa | 0 mm | - | 0 W/m² | - |
| 1788672364 | 24.44° C | 19% | 1001.7 hPa | 0 mm | - | 0 W/m² | - |
| 1788672061 | 25° C | 19% | 1001.5 hPa | 0 mm | - | 0 W/m² | - |
| 1788671756 | 25° C | 19% | 1001.5 hPa | 0 mm | - | 0 W/m² | - |
| 1788671472 | 24.44° C | 19% | 1001.7 hPa | 0 mm | - | 0 W/m² | - |
| 1788671146 | 24.44° C | 19% | 1001.4 hPa | 0 mm | - | 0 W/m² | - |
| 1788670842 | 25° C | 19% | 1001.7 hPa | 0 mm | - | 0 W/m² | - |
| 1788670539 | 25° C | 19% | 1001.5 hPa | 0 mm | - | 0 W/m² | - |
* Rain latest hour (hover to see other rain measurements)
** Current wind speed in m/s (hover to see current wind gust speed)